Location: Chandrammap?lem
(16.9200°N, 81.0051°E)
Time: 06:22:05
(UTC+00:00)

Cosmos 192 - Pass Details

Date: 29 May 2024
Orbit: 698 x 710 km, 74.0° (Epoch: 19 June)

Event Time Altitude Azimuth Distance (km) Brightness Sun altitude
Rises 13:31:29 0° 349° (NNW) 3,098 8.2 -6.6°
Reaches altitude 10° 13:33:49 10° 350° (N) 2,180 7.4 -7.1°
Maximum altitude 13:38:44 77° 77° (ENE) 731 4.3 -8.1°
Drops below altitude 10° 13:43:38 10° 162° (SSE) 2,177 6.5 -9.2°
Enters shadow 13:45:49 - 164° (SSE) 3,034 7.2 -9.7°
